Year,Month,Day,Hour,Minute,Value (Times are PST for temperature in C)
2009,08,22,00,00,13.60
2009,08,22,00,01,13.60
2009,08,22,00,02,13.60
2009,08,22,00,03,13.60
2009,08,22,00,04,13.60
2009,08,22,00,05,13.60
2009,08,22,00,06,13.60
2009,08,22,00,07,13.60
2009,08,22,00,08,13.60
2009,08,22,00,09,13.50
2009,08,22,00,10,13.50
2009,08,22,00,11,13.50
2009,08,22,00,12,13.40
2009,08,22,00,13,13.40
2009,08,22,00,14,13.40
2009,08,22,00,15,13.40
2009,08,22,00,16,13.40
2009,08,22,00,17,13.40
2009,08,22,00,18,13.30
2009,08,22,00,19,13.30
2009,08,22,00,20,13.30
2009,08,22,00,21,13.30
2009,08,22,00,22,13.30
2009,08,22,00,23,13.20
2009,08,22,00,24,13.20
2009,08,22,00,25,13.20
2009,08,22,00,26,13.20
2009,08,22,00,27,13.20
2009,08,22,00,28,13.20
2009,08,22,00,29,13.10
2009,08,22,00,30,13.10
2009,08,22,00,31,13.10
2009,08,22,00,32,13.10
2009,08,22,00,33,13.10
2009,08,22,00,34,13.00
2009,08,22,00,35,13.00
2009,08,22,00,36,13.00
2009,08,22,00,37,12.90
2009,08,22,00,38,12.90
2009,08,22,00,39,12.90
2009,08,22,00,40,12.90
2009,08,22,00,41,12.90
2009,08,22,00,42,12.80
2009,08,22,00,43,12.80
2009,08,22,00,44,12.80
2009,08,22,00,45,12.80
2009,08,22,00,46,12.80
2009,08,22,00,47,12.70
2009,08,22,00,48,12.70
2009,08,22,00,49,12.70
2009,08,22,00,50,12.70
2009,08,22,00,51,12.70
2009,08,22,00,52,12.60
2009,08,22,00,53,12.60
2009,08,22,00,54,12.60
2009,08,22,00,55,12.60
2009,08,22,00,56,12.60
2009,08,22,00,57,12.60
2009,08,22,00,58,12.60
2009,08,22,00,59,12.60
2009,08,22,01,00,12.60
2009,08,22,01,01,12.60
2009,08,22,01,02,12.60
2009,08,22,01,03,12.60
2009,08,22,01,04,12.50
2009,08,22,01,05,12.50
2009,08,22,01,06,12.50
2009,08,22,01,07,12.50
2009,08,22,01,08,12.50
2009,08,22,01,09,12.50
2009,08,22,01,10,12.50
2009,08,22,01,11,12.50
2009,08,22,01,12,12.50
2009,08,22,01,13,12.40
2009,08,22,01,14,12.40
2009,08,22,01,15,12.40
2009,08,22,01,16,12.40
2009,08,22,01,17,12.40
2009,08,22,01,18,12.40
2009,08,22,01,19,12.40
2009,08,22,01,20,12.40
2009,08,22,01,21,12.40
2009,08,22,01,22,12.40
2009,08,22,01,23,12.30
2009,08,22,01,24,12.30
2009,08,22,01,25,12.30
2009,08,22,01,26,12.30
2009,08,22,01,27,12.30
2009,08,22,01,28,12.30
2009,08,22,01,29,12.30
2009,08,22,01,30,12.30
2009,08,22,01,31,12.30
2009,08,22,01,32,12.30
2009,08,22,01,33,12.30
2009,08,22,01,34,12.20
2009,08,22,01,35,12.20
2009,08,22,01,36,12.20
2009,08,22,01,37,12.20
2009,08,22,01,38,12.20
2009,08,22,01,39,12.20
2009,08,22,01,40,12.20
2009,08,22,01,41,12.20
2009,08,22,01,42,12.10
2009,08,22,01,43,12.10
2009,08,22,01,44,12.10
2009,08,22,01,45,12.10
2009,08,22,01,46,12.10
2009,08,22,01,47,12.10
2009,08,22,01,48,12.00
2009,08,22,01,49,12.00
2009,08,22,01,50,12.00
2009,08,22,01,51,12.00
2009,08,22,01,52,11.90
2009,08,22,01,53,11.90
2009,08,22,01,54,11.90
2009,08,22,01,55,11.90
2009,08,22,01,56,11.80
2009,08,22,01,57,11.80
2009,08,22,01,58,11.80
2009,08,22,01,59,11.80
2009,08,22,02,00,11.80
2009,08,22,02,01,11.80
2009,08,22,02,02,11.70
2009,08,22,02,03,11.70
2009,08,22,02,04,11.70
2009,08,22,02,05,11.70
2009,08,22,02,06,11.70
2009,08,22,02,07,11.70
2009,08,22,02,08,11.70
2009,08,22,02,09,11.70
2009,08,22,02,10,11.60
2009,08,22,02,11,11.60
2009,08,22,02,12,11.60
2009,08,22,02,13,11.60
2009,08,22,02,14,11.60
2009,08,22,02,15,11.60
2009,08,22,02,16,11.60
2009,08,22,02,17,11.50
2009,08,22,02,18,11.50
2009,08,22,02,19,11.50
2009,08,22,02,20,11.40
2009,08,22,02,21,11.40
2009,08,22,02,22,11.40
2009,08,22,02,23,11.40
2009,08,22,02,24,11.40
2009,08,22,02,25,11.40
2009,08,22,02,26,11.40
2009,08,22,02,27,11.40
2009,08,22,02,28,11.40
2009,08,22,02,29,11.40
2009,08,22,02,30,11.40
2009,08,22,02,31,11.40
2009,08,22,02,32,11.40
2009,08,22,02,33,11.40
2009,08,22,02,34,11.30
2009,08,22,02,35,11.30
2009,08,22,02,36,11.30
2009,08,22,02,37,11.30
2009,08,22,02,38,11.30
2009,08,22,02,39,11.30
2009,08,22,02,40,11.30
2009,08,22,02,41,11.20
2009,08,22,02,42,11.20
2009,08,22,02,43,11.20
2009,08,22,02,44,11.20
2009,08,22,02,45,11.20
2009,08,22,02,46,11.20
2009,08,22,02,47,11.20
2009,08,22,02,48,11.20
2009,08,22,02,49,11.20
2009,08,22,02,50,11.20
2009,08,22,02,51,11.20
2009,08,22,02,52,11.20
2009,08,22,02,53,11.20
2009,08,22,02,54,11.20
2009,08,22,02,55,11.20
2009,08,22,02,56,11.20
2009,08,22,02,57,11.20
2009,08,22,02,58,11.20
2009,08,22,02,59,11.20
2009,08,22,03,00,11.10
2009,08,22,03,01,11.10
2009,08,22,03,02,11.10
2009,08,22,03,03,11.10
2009,08,22,03,04,11.10
2009,08,22,03,05,11.10
2009,08,22,03,06,11.10
2009,08,22,03,07,11.00
2009,08,22,03,08,11.00
2009,08,22,03,09,11.00
2009,08,22,03,10,11.00
2009,08,22,03,11,10.90
2009,08,22,03,12,10.90
2009,08,22,03,13,10.90
2009,08,22,03,14,10.90
2009,08,22,03,15,10.90
2009,08,22,03,16,10.90
2009,08,22,03,17,10.90
2009,08,22,03,18,10.80
2009,08,22,03,19,10.80
2009,08,22,03,20,10.80
2009,08,22,03,21,10.80
2009,08,22,03,22,10.80
2009,08,22,03,23,10.80
2009,08,22,03,24,10.80
2009,08,22,03,25,10.80
2009,08,22,03,26,10.80
2009,08,22,03,27,10.80
2009,08,22,03,28,10.80
2009,08,22,03,29,10.80
2009,08,22,03,30,10.80
2009,08,22,03,31,10.80
2009,08,22,03,32,10.80
2009,08,22,03,33,10.80
2009,08,22,03,34,10.80
2009,08,22,03,35,10.70
2009,08,22,03,36,10.70
2009,08,22,03,37,10.70
2009,08,22,03,38,10.70
2009,08,22,03,39,10.70
2009,08,22,03,40,10.70
2009,08,22,03,41,10.70
2009,08,22,03,42,10.70
2009,08,22,03,43,10.70
2009,08,22,03,44,10.70
2009,08,22,03,45,10.70
2009,08,22,03,46,10.60
2009,08,22,03,47,10.60
2009,08,22,03,48,10.60
2009,08,22,03,49,10.60
2009,08,22,03,50,10.60
2009,08,22,03,51,10.60
2009,08,22,03,52,10.60
2009,08,22,03,53,10.60
2009,08,22,03,54,10.50
2009,08,22,03,55,10.50
2009,08,22,03,56,10.50
2009,08,22,03,57,10.50
2009,08,22,03,58,10.50
2009,08,22,03,59,10.50
2009,08,22,04,00,10.40
2009,08,22,04,01,10.40
2009,08,22,04,02,10.40
2009,08,22,04,03,10.40
2009,08,22,04,04,10.40
2009,08,22,04,05,10.40
2009,08,22,04,06,10.40
2009,08,22,04,07,10.40
2009,08,22,04,08,10.40
2009,08,22,04,09,10.40
2009,08,22,04,10,10.40
2009,08,22,04,11,10.40
2009,08,22,04,12,10.40
2009,08,22,04,13,10.40
2009,08,22,04,14,10.40
2009,08,22,04,15,10.40
2009,08,22,04,16,10.40
2009,08,22,04,17,10.40
2009,08,22,04,18,10.40
2009,08,22,04,19,10.40
2009,08,22,04,20,10.30
2009,08,22,04,21,10.30
2009,08,22,04,22,10.30
2009,08,22,04,23,10.30
2009,08,22,04,24,10.30
2009,08,22,04,25,10.30
2009,08,22,04,26,10.30
2009,08,22,04,27,10.30
2009,08,22,04,28,10.30
2009,08,22,04,29,10.30
2009,08,22,04,30,10.30
2009,08,22,04,31,10.30
2009,08,22,04,32,10.30
2009,08,22,04,33,10.30
2009,08,22,04,34,10.30
2009,08,22,04,35,10.20
2009,08,22,04,36,10.20
2009,08,22,04,37,10.20
2009,08,22,04,38,10.20
2009,08,22,04,39,10.20
2009,08,22,04,40,10.20
2009,08,22,04,41,10.20
2009,08,22,04,42,10.20
2009,08,22,04,43,10.20
2009,08,22,04,44,10.30
2009,08,22,04,45,10.30
2009,08,22,04,46,10.30
2009,08,22,04,47,10.30
2009,08,22,04,48,10.30
2009,08,22,04,49,10.30
2009,08,22,04,50,10.30
2009,08,22,04,51,10.30
2009,08,22,04,52,10.30
2009,08,22,04,53,10.30
2009,08,22,04,54,10.30
2009,08,22,04,55,10.30
2009,08,22,04,56,10.30
2009,08,22,04,57,10.30
2009,08,22,04,58,10.30
2009,08,22,04,59,10.30
2009,08,22,05,00,10.30
2009,08,22,05,01,10.20
2009,08,22,05,02,10.30
2009,08,22,05,03,10.20
2009,08,22,05,04,10.20
2009,08,22,05,05,10.20
2009,08,22,05,06,10.20
2009,08,22,05,07,10.20
2009,08,22,05,08,10.20
2009,08,22,05,09,10.20
2009,08,22,05,10,10.20
2009,08,22,05,11,10.10
2009,08,22,05,12,10.10
2009,08,22,05,13,10.10
2009,08,22,05,14,10.10
2009,08,22,05,15,10.10
2009,08,22,05,16,10.10
2009,08,22,05,17,10.10
2009,08,22,05,18,10.00
2009,08,22,05,19,10.00
2009,08,22,05,20,9.90
2009,08,22,05,21,9.90
2009,08,22,05,22,9.90
2009,08,22,05,23,9.90
2009,08,22,05,24,9.90
2009,08,22,05,25,9.80
2009,08,22,05,26,9.80
2009,08,22,05,27,9.80
2009,08,22,05,28,9.80
2009,08,22,05,29,9.80
2009,08,22,05,30,9.70
2009,08,22,05,31,9.70
2009,08,22,05,32,9.70
2009,08,22,05,33,9.70
2009,08,22,05,34,9.70
2009,08,22,05,35,9.70
2009,08,22,05,36,9.70
2009,08,22,05,37,9.70
2009,08,22,05,38,9.60
2009,08,22,05,39,9.60
2009,08,22,05,40,9.60
2009,08,22,05,41,9.60
2009,08,22,05,42,9.60
2009,08,22,05,43,9.60
2009,08,22,05,44,9.60
2009,08,22,05,45,9.60
2009,08,22,05,46,9.60
2009,08,22,05,47,9.60
2009,08,22,05,48,9.60
2009,08,22,05,49,9.60
2009,08,22,05,50,9.60
2009,08,22,05,51,9.60
2009,08,22,05,52,9.60
2009,08,22,05,53,9.60
2009,08,22,05,54,9.60
2009,08,22,05,55,9.50
2009,08,22,05,56,9.50
2009,08,22,05,57,9.50
2009,08,22,05,58,9.50
2009,08,22,05,59,9.50
2009,08,22,06,00,9.50
2009,08,22,06,01,9.50
2009,08,22,06,02,9.50
2009,08,22,06,03,9.50
2009,08,22,06,04,9.40
2009,08,22,06,05,9.40
2009,08,22,06,06,9.40
2009,08,22,06,07,9.40
2009,08,22,06,08,9.40
2009,08,22,06,09,9.40
2009,08,22,06,10,9.40
2009,08,22,06,11,9.40
2009,08,22,06,12,9.40
2009,08,22,06,13,9.30
2009,08,22,06,14,9.30
2009,08,22,06,15,9.30
2009,08,22,06,16,9.30
2009,08,22,06,17,9.30
2009,08,22,06,18,9.30
2009,08,22,06,19,9.30
2009,08,22,06,20,9.30
2009,08,22,06,21,9.20
2009,08,22,06,22,9.20
2009,08,22,06,23,9.20
2009,08,22,06,24,9.20
2009,08,22,06,25,9.20
2009,08,22,06,26,9.20
2009,08,22,06,27,9.20
2009,08,22,06,28,9.10
2009,08,22,06,29,9.10
2009,08,22,06,30,9.10
2009,08,22,06,31,9.10
2009,08,22,06,32,9.10
2009,08,22,06,33,9.10
2009,08,22,06,34,9.10
2009,08,22,06,35,9.10
2009,08,22,06,36,9.10
2009,08,22,06,37,9.00
2009,08,22,06,38,9.00
2009,08,22,06,39,9.00
2009,08,22,06,40,9.00
2009,08,22,06,41,9.00
2009,08,22,06,42,9.00
2009,08,22,06,43,9.00
2009,08,22,06,44,9.00
2009,08,22,06,45,9.00
2009,08,22,06,46,9.00
2009,08,22,06,47,9.00
2009,08,22,06,48,9.00
2009,08,22,06,49,8.90
2009,08,22,06,50,8.90
2009,08,22,06,51,8.90
2009,08,22,06,52,8.90
2009,08,22,06,53,8.90
2009,08,22,06,54,8.90
2009,08,22,06,55,8.90
2009,08,22,06,56,8.90
2009,08,22,06,57,8.90
2009,08,22,06,58,8.90
2009,08,22,06,59,8.90
2009,08,22,07,00,8.90
2009,08,22,07,01,8.90
2009,08,22,07,02,9.00
2009,08,22,07,03,9.00
2009,08,22,07,04,9.00
2009,08,22,07,05,9.00
2009,08,22,07,06,9.00
2009,08,22,07,07,9.00
2009,08,22,07,08,9.00
2009,08,22,07,09,9.00
2009,08,22,07,10,9.00
2009,08,22,07,11,9.00
2009,08,22,07,12,9.00
2009,08,22,07,13,9.00
2009,08,22,07,14,9.00
2009,08,22,07,15,9.00
2009,08,22,07,16,9.00
2009,08,22,07,17,9.00
2009,08,22,07,18,9.00
2009,08,22,07,19,9.00
2009,08,22,07,20,9.00
2009,08,22,07,21,9.00
2009,08,22,07,22,9.00
2009,08,22,07,23,9.10
2009,08,22,07,24,9.00
2009,08,22,07,25,9.10
2009,08,22,07,26,9.10
2009,08,22,07,27,9.10
2009,08,22,07,28,9.10
2009,08,22,07,29,9.10
2009,08,22,07,30,9.10
2009,08,22,07,31,9.10
2009,08,22,07,32,9.10
2009,08,22,07,33,9.10
2009,08,22,07,34,9.10
2009,08,22,07,35,9.10
2009,08,22,07,36,9.10
2009,08,22,07,37,9.20
2009,08,22,07,38,9.20
2009,08,22,07,39,9.20
2009,08,22,07,40,9.20
2009,08,22,07,41,9.20
2009,08,22,07,42,9.20
2009,08,22,07,43,9.20
2009,08,22,07,44,9.20
2009,08,22,07,45,9.30
2009,08,22,07,46,9.30
2009,08,22,07,47,9.30
2009,08,22,07,48,9.30
2009,08,22,07,49,9.30
2009,08,22,07,50,9.40
2009,08,22,07,51,9.40
2009,08,22,07,52,9.40
2009,08,22,07,53,9.40
2009,08,22,07,54,9.40
2009,08,22,07,55,9.50
2009,08,22,07,56,9.50
2009,08,22,07,57,9.50
2009,08,22,07,58,9.60
2009,08,22,07,59,9.60
2009,08,22,08,00,9.60
2009,08,22,08,01,9.60
2009,08,22,08,02,9.60
2009,08,22,08,03,9.70
2009,08,22,08,04,9.70
2009,08,22,08,05,9.70
2009,08,22,08,06,9.70
2009,08,22,08,07,9.70
2009,08,22,08,08,9.80
2009,08,22,08,09,9.80
2009,08,22,08,10,9.80
2009,08,22,08,11,9.80
2009,08,22,08,12,9.80
2009,08,22,08,13,9.90
2009,08,22,08,14,9.90
2009,08,22,08,15,9.90
2009,08,22,08,16,9.90
2009,08,22,08,17,10.00
2009,08,22,08,18,10.00
2009,08,22,08,19,10.00
2009,08,22,08,20,10.10
2009,08,22,08,21,10.10
2009,08,22,08,22,10.10
2009,08,22,08,23,10.20
2009,08,22,08,24,10.20
2009,08,22,08,25,10.20
2009,08,22,08,26,10.20
2009,08,22,08,27,10.30
2009,08,22,08,28,10.30
2009,08,22,08,29,10.30
2009,08,22,08,30,10.40
2009,08,22,08,31,10.40
2009,08,22,08,32,10.40
2009,08,22,08,33,10.50
2009,08,22,08,34,10.50
2009,08,22,08,35,10.50
2009,08,22,08,36,10.60
2009,08,22,08,37,10.60
2009,08,22,08,38,10.60
2009,08,22,08,39,10.70
2009,08,22,08,40,10.70
2009,08,22,08,41,10.70
2009,08,22,08,42,10.80
2009,08,22,08,43,10.80
2009,08,22,08,44,10.80
2009,08,22,08,45,10.80
2009,08,22,08,46,10.90
2009,08,22,08,47,10.90
2009,08,22,08,48,10.90
2009,08,22,08,49,10.90
2009,08,22,08,50,11.00
2009,08,22,08,51,11.10
2009,08,22,08,52,11.10
2009,08,22,08,53,11.10
2009,08,22,08,54,11.20
2009,08,22,08,55,11.20
2009,08,22,08,56,11.30
2009,08,22,08,57,11.30
2009,08,22,08,58,11.30
2009,08,22,08,59,11.30
2009,08,22,09,00,11.40
2009,08,22,09,01,11.40
2009,08,22,09,02,11.50
2009,08,22,09,03,11.50
2009,08,22,09,04,11.60
2009,08,22,09,05,11.60
2009,08,22,09,06,11.60
2009,08,22,09,07,11.70
2009,08,22,09,08,11.70
2009,08,22,09,09,11.80
2009,08,22,09,10,11.80
2009,08,22,09,11,11.80
2009,08,22,09,12,11.90
2009,08,22,09,13,11.90
2009,08,22,09,14,12.00
2009,08,22,09,15,12.00
2009,08,22,09,16,12.10
2009,08,22,09,17,12.10
2009,08,22,09,18,12.20
2009,08,22,09,19,12.20
2009,08,22,09,20,12.20
2009,08,22,09,21,12.30
2009,08,22,09,22,12.30
2009,08,22,09,23,12.30
2009,08,22,09,24,12.40
2009,08,22,09,25,12.40
2009,08,22,09,26,12.40
2009,08,22,09,27,12.50
2009,08,22,09,28,12.50
2009,08,22,09,29,12.60
2009,08,22,09,30,12.60
2009,08,22,09,31,12.60
2009,08,22,09,32,12.70
2009,08,22,09,33,12.70
2009,08,22,09,34,12.70
2009,08,22,09,35,12.80
2009,08,22,09,36,12.80
2009,08,22,09,37,12.80
2009,08,22,09,38,12.90
2009,08,22,09,39,12.90
2009,08,22,09,40,12.90
2009,08,22,09,41,13.00
2009,08,22,09,42,13.00
2009,08,22,09,43,13.10
2009,08,22,09,44,13.10
2009,08,22,09,45,13.10
2009,08,22,09,46,13.20
2009,08,22,09,47,13.20
2009,08,22,09,48,13.20
2009,08,22,09,49,13.30
2009,08,22,09,50,13.30
2009,08,22,09,51,13.30
2009,08,22,09,52,13.40
2009,08,22,09,53,13.40
2009,08,22,09,54,13.50
2009,08,22,09,55,13.60
2009,08,22,09,56,13.60
2009,08,22,09,57,13.60
2009,08,22,09,58,13.70
2009,08,22,09,59,13.70
2009,08,22,10,00,13.80
2009,08,22,10,01,13.80
2009,08,22,10,02,13.90
2009,08,22,10,03,13.90
2009,08,22,10,04,13.90
2009,08,22,10,05,14.00
2009,08,22,10,06,14.00
2009,08,22,10,07,14.10
2009,08,22,10,08,14.10
2009,08,22,10,09,14.10
2009,08,22,10,10,14.20
2009,08,22,10,11,14.20
2009,08,22,10,12,14.20
2009,08,22,10,13,14.30
2009,08,22,10,14,14.30
2009,08,22,10,15,14.30
2009,08,22,10,16,14.40
2009,08,22,10,17,14.40
2009,08,22,10,18,14.50
2009,08,22,10,19,14.50
2009,08,22,10,20,14.60
2009,08,22,10,21,14.60
2009,08,22,10,22,14.70
2009,08,22,10,23,14.70
2009,08,22,10,24,14.80
2009,08,22,10,25,14.90
2009,08,22,10,26,15.00
2009,08,22,10,27,15.00
2009,08,22,10,28,15.00
2009,08,22,10,29,15.10
2009,08,22,10,30,15.20
2009,08,22,10,31,15.30
2009,08,22,10,32,15.30
2009,08,22,10,33,15.40
2009,08,22,10,34,15.40
2009,08,22,10,35,15.50
2009,08,22,10,36,15.60
2009,08,22,10,37,15.60
2009,08,22,10,38,15.70
2009,08,22,10,39,15.80
2009,08,22,10,40,15.80
2009,08,22,10,41,15.90
2009,08,22,10,42,16.00
2009,08,22,10,43,16.00
2009,08,22,10,44,16.10
2009,08,22,10,45,16.20
2009,08,22,10,46,16.30
2009,08,22,10,47,16.40
2009,08,22,10,48,16.60
2009,08,22,10,49,16.70
2009,08,22,10,50,16.80
2009,08,22,10,51,16.90
2009,08,22,10,52,17.10
2009,08,22,10,53,17.20
2009,08,22,10,54,17.40
2009,08,22,10,55,17.50
2009,08,22,10,56,17.60
2009,08,22,10,57,17.80
2009,08,22,10,58,17.80
2009,08,22,10,59,17.90
2009,08,22,11,00,18.00
2009,08,22,11,01,18.10
2009,08,22,11,02,18.10
2009,08,22,11,03,18.20
2009,08,22,11,04,18.20
2009,08,22,11,05,18.30
2009,08,22,11,06,18.40
2009,08,22,11,07,18.50
2009,08,22,11,08,18.50
2009,08,22,11,09,18.60
2009,08,22,11,10,18.70
2009,08,22,11,11,18.80
2009,08,22,11,12,18.80
2009,08,22,11,13,18.90
2009,08,22,11,14,18.90
2009,08,22,11,15,18.90
2009,08,22,11,16,19.00
2009,08,22,11,17,19.00
2009,08,22,11,18,19.00
2009,08,22,11,19,19.10
2009,08,22,11,20,19.10
2009,08,22,11,21,19.10
2009,08,22,11,22,19.00
2009,08,22,11,23,19.00
2009,08,22,11,24,19.00
2009,08,22,11,25,19.10
2009,08,22,11,26,19.20
2009,08,22,11,27,19.20
2009,08,22,11,28,19.30
2009,08,22,11,29,19.30
2009,08,22,11,30,19.40
2009,08,22,11,31,19.40
2009,08,22,11,32,19.40
2009,08,22,11,33,19.50
2009,08,22,11,34,19.50
2009,08,22,11,35,19.60
2009,08,22,11,36,19.60
2009,08,22,11,37,19.70
2009,08,22,11,38,19.70
2009,08,22,11,39,19.80
2009,08,22,11,40,19.80
2009,08,22,11,41,19.90
2009,08,22,11,42,19.90
2009,08,22,11,43,20.00
2009,08,22,11,44,20.00
2009,08,22,11,45,20.10
2009,08,22,11,46,20.10
2009,08,22,11,47,20.20
2009,08,22,11,48,20.20
2009,08,22,11,49,20.30
2009,08,22,11,50,20.30
2009,08,22,11,51,20.40
2009,08,22,11,52,20.40
2009,08,22,11,53,20.50
2009,08,22,11,54,20.50
2009,08,22,11,55,20.60
2009,08,22,11,56,20.60
2009,08,22,11,57,20.60
2009,08,22,11,58,20.60
2009,08,22,11,59,20.70
2009,08,22,12,00,20.70
2009,08,22,12,01,20.80
2009,08,22,12,02,20.80
2009,08,22,12,03,20.80
2009,08,22,12,04,20.80
2009,08,22,12,05,20.90
2009,08,22,12,06,20.90
2009,08,22,12,07,20.90
2009,08,22,12,08,20.90
2009,08,22,12,09,20.90
2009,08,22,12,10,21.00
2009,08,22,12,11,21.00
2009,08,22,12,12,21.10
2009,08,22,12,13,21.10
2009,08,22,12,14,21.10
2009,08,22,12,15,21.00
2009,08,22,12,16,21.00
2009,08,22,12,17,20.90
2009,08,22,12,18,20.90
2009,08,22,12,19,20.90
2009,08,22,12,20,20.90
2009,08,22,12,21,20.80
2009,08,22,12,22,20.80
2009,08,22,12,23,20.70
2009,08,22,12,24,20.70
2009,08,22,12,25,20.60
2009,08,22,12,26,20.60
2009,08,22,12,27,20.50
2009,08,22,12,28,20.50
2009,08,22,12,29,20.40
2009,08,22,12,30,20.40
2009,08,22,12,31,20.30
2009,08,22,12,32,20.30
2009,08,22,12,33,20.20
2009,08,22,12,34,20.20
2009,08,22,12,35,20.20
2009,08,22,12,36,20.10
2009,08,22,12,37,20.10
2009,08,22,12,38,20.00
2009,08,22,12,39,20.00
2009,08,22,12,40,19.90
2009,08,22,12,41,19.90
2009,08,22,12,42,19.80
2009,08,22,12,43,19.80
2009,08,22,12,44,19.70
2009,08,22,12,45,19.70
2009,08,22,12,46,19.60
2009,08,22,12,47,19.60
2009,08,22,12,48,19.60
2009,08,22,12,49,19.50
2009,08,22,12,50,19.50
2009,08,22,12,51,19.50
2009,08,22,12,52,19.40
2009,08,22,12,53,19.40
2009,08,22,12,54,19.40
2009,08,22,12,55,19.40
2009,08,22,12,56,19.40
2009,08,22,12,57,19.40
2009,08,22,12,58,19.40
2009,08,22,12,59,19.40
2009,08,22,13,00,19.40
2009,08,22,13,01,19.40
2009,08,22,13,02,19.40
2009,08,22,13,03,19.40
2009,08,22,13,04,19.50
2009,08,22,13,05,19.50
2009,08,22,13,06,19.60
2009,08,22,13,07,19.70
2009,08,22,13,08,19.70
2009,08,22,13,09,19.80
2009,08,22,13,10,19.80
2009,08,22,13,11,19.90
2009,08,22,13,12,20.00
2009,08,22,13,13,20.10
2009,08,22,13,14,20.10
2009,08,22,13,15,20.20
2009,08,22,13,16,20.20
2009,08,22,13,17,20.20
2009,08,22,13,18,20.20
2009,08,22,13,19,20.30
2009,08,22,13,20,20.30
2009,08,22,13,21,20.30
2009,08,22,13,22,20.40
2009,08,22,13,23,20.50
2009,08,22,13,24,20.50
2009,08,22,13,25,20.60
2009,08,22,13,26,20.60
2009,08,22,13,27,20.60
2009,08,22,13,28,20.60
2009,08,22,13,29,20.70
2009,08,22,13,30,20.70
2009,08,22,13,31,20.60
2009,08,22,13,32,20.60
2009,08,22,13,33,20.60
2009,08,22,13,34,20.50
2009,08,22,13,35,20.40
2009,08,22,13,36,20.40
2009,08,22,13,37,20.40
2009,08,22,13,38,20.30
2009,08,22,13,39,20.30
2009,08,22,13,40,20.30
2009,08,22,13,41,20.30
2009,08,22,13,42,20.40
2009,08,22,13,43,20.40
2009,08,22,13,44,20.50
2009,08,22,13,45,20.60
2009,08,22,13,46,20.70
2009,08,22,13,47,20.80
2009,08,22,13,48,20.90
2009,08,22,13,49,21.00
2009,08,22,13,50,21.10
2009,08,22,13,51,21.20
2009,08,22,13,52,21.40
2009,08,22,13,53,21.50
2009,08,22,13,54,21.50
2009,08,22,13,55,21.60
2009,08,22,13,56,21.70
2009,08,22,13,57,21.80
2009,08,22,13,58,21.80
2009,08,22,13,59,21.90
2009,08,22,14,00,21.90
2009,08,22,14,01,21.90
2009,08,22,14,02,22.00
2009,08,22,14,03,22.00
2009,08,22,14,04,22.10
2009,08,22,14,05,22.10
2009,08,22,14,06,22.10
2009,08,22,14,07,22.20
2009,08,22,14,08,22.20
2009,08,22,14,09,22.30
2009,08,22,14,10,22.40
2009,08,22,14,11,22.40
2009,08,22,14,12,22.50
2009,08,22,14,13,22.60
2009,08,22,14,14,22.70
2009,08,22,14,15,22.70
2009,08,22,14,16,22.70
2009,08,22,14,17,22.70
2009,08,22,14,18,22.70
2009,08,22,14,19,22.60
2009,08,22,14,20,22.60
2009,08,22,14,21,22.60
2009,08,22,14,22,22.50
2009,08,22,14,23,22.40
2009,08,22,14,24,22.40
2009,08,22,14,25,22.40
2009,08,22,14,26,22.40
2009,08,22,14,27,22.40
2009,08,22,14,28,22.50
2009,08,22,14,29,22.60
2009,08,22,14,30,22.60
2009,08,22,14,31,22.60
2009,08,22,14,32,22.60
2009,08,22,14,33,22.70
2009,08,22,14,34,22.70
2009,08,22,14,35,22.70
2009,08,22,14,36,22.80
2009,08,22,14,37,22.80
2009,08,22,14,38,22.90
2009,08,22,14,39,22.90
2009,08,22,14,40,23.00
2009,08,22,14,41,23.10
2009,08,22,14,42,23.10
2009,08,22,14,43,23.20
2009,08,22,14,44,23.20
2009,08,22,14,45,23.30
2009,08,22,14,46,23.40
2009,08,22,14,47,23.40
2009,08,22,14,48,23.40
2009,08,22,14,49,23.40
2009,08,22,14,50,23.40
2009,08,22,14,51,23.40
2009,08,22,14,52,23.40
2009,08,22,14,53,23.40
2009,08,22,14,54,23.40
2009,08,22,14,55,23.40
2009,08,22,14,56,23.50
2009,08,22,14,57,23.50
2009,08,22,14,58,23.50
2009,08,22,14,59,23.50
2009,08,22,15,00,23.50
2009,08,22,15,01,23.50
2009,08,22,15,02,23.50
2009,08,22,15,03,23.40
2009,08,22,15,04,23.30
2009,08,22,15,05,23.30
2009,08,22,15,06,23.20
2009,08,22,15,07,23.10
2009,08,22,15,08,23.00
2009,08,22,15,09,22.90
2009,08,22,15,10,22.80
2009,08,22,15,11,22.80
2009,08,22,15,12,22.70
2009,08,22,15,13,22.60
2009,08,22,15,14,22.60
2009,08,22,15,15,22.50
2009,08,22,15,16,22.50
2009,08,22,15,17,22.50
2009,08,22,15,18,22.60
2009,08,22,15,19,22.60
2009,08,22,15,20,22.70
2009,08,22,15,21,22.70
2009,08,22,15,22,22.80
2009,08,22,15,23,22.80
2009,08,22,15,24,22.70
2009,08,22,15,25,22.60
2009,08,22,15,26,22.60
2009,08,22,15,27,22.60
2009,08,22,15,28,22.60
2009,08,22,15,29,22.60
2009,08,22,15,30,22.60
2009,08,22,15,31,22.50
2009,08,22,15,32,22.50
2009,08,22,15,33,22.40
2009,08,22,15,34,22.40
2009,08,22,15,35,22.30
2009,08,22,15,36,22.30
2009,08,22,15,37,22.20
2009,08,22,15,38,22.10
2009,08,22,15,39,22.00
2009,08,22,15,40,22.00
2009,08,22,15,41,21.90
2009,08,22,15,42,21.90
2009,08,22,15,43,21.80
2009,08,22,15,44,21.80
2009,08,22,15,45,21.70
2009,08,22,15,46,21.70
2009,08,22,15,47,21.60
2009,08,22,15,48,21.50
2009,08,22,15,49,21.40
2009,08,22,15,50,21.30
2009,08,22,15,51,21.20
2009,08,22,15,52,21.00
2009,08,22,15,53,20.90
2009,08,22,15,54,20.80
2009,08,22,15,55,20.80
2009,08,22,15,56,20.70
2009,08,22,15,57,20.60
2009,08,22,15,58,20.60
2009,08,22,15,59,20.50
2009,08,22,16,00,20.50
2009,08,22,16,01,20.40
2009,08,22,16,02,20.40
2009,08,22,16,03,20.40
2009,08,22,16,04,20.50
2009,08,22,16,05,20.50
2009,08,22,16,06,20.60
2009,08,22,16,07,20.70
2009,08,22,16,08,20.80
2009,08,22,16,09,20.90
2009,08,22,16,10,20.90
2009,08,22,16,11,21.10
2009,08,22,16,12,21.10
2009,08,22,16,13,21.20
2009,08,22,16,14,21.30
2009,08,22,16,15,21.30
2009,08,22,16,16,21.30
2009,08,22,16,17,21.30
2009,08,22,16,18,21.30
2009,08,22,16,19,21.30
2009,08,22,16,20,21.30
2009,08,22,16,21,21.30
2009,08,22,16,22,21.30
2009,08,22,16,23,21.30
2009,08,22,16,24,21.30
2009,08,22,16,25,21.30
2009,08,22,16,26,21.30
2009,08,22,16,27,21.20
2009,08,22,16,28,21.20
2009,08,22,16,29,21.20
2009,08,22,16,30,21.20
2009,08,22,16,31,21.20
2009,08,22,16,32,21.20
2009,08,22,16,33,21.30
2009,08,22,16,34,21.30
2009,08,22,16,35,21.30
2009,08,22,16,36,21.30
2009,08,22,16,37,21.30
2009,08,22,16,38,21.30
2009,08,22,16,39,21.30
2009,08,22,16,40,21.30
2009,08,22,16,41,21.40
2009,08,22,16,42,21.40
2009,08,22,16,43,21.40
2009,08,22,16,44,21.40
2009,08,22,16,45,21.40
2009,08,22,16,46,21.40
2009,08,22,16,47,21.50
2009,08,22,16,48,21.50
2009,08,22,16,49,21.40
2009,08,22,16,50,21.40
2009,08,22,16,51,21.50
2009,08,22,16,52,21.50
2009,08,22,16,53,21.50
2009,08,22,16,54,21.50
2009,08,22,16,55,21.60
2009,08,22,16,56,21.60
2009,08,22,16,57,21.60
2009,08,22,16,58,21.60
2009,08,22,16,59,21.60
2009,08,22,17,00,21.60
2009,08,22,17,01,21.70
2009,08,22,17,02,21.70
2009,08,22,17,03,21.80
2009,08,22,17,04,21.80
2009,08,22,17,05,21.90
2009,08,22,17,06,21.90
2009,08,22,17,07,21.90
2009,08,22,17,08,21.80
2009,08,22,17,09,21.80
2009,08,22,17,10,21.80
2009,08,22,17,11,21.80
2009,08,22,17,12,21.90
2009,08,22,17,13,21.90
2009,08,22,17,14,22.00
2009,08,22,17,15,22.10
2009,08,22,17,16,22.10
2009,08,22,17,17,22.20
2009,08,22,17,18,22.20
2009,08,22,17,19,22.30
2009,08,22,17,20,22.30
2009,08,22,17,21,22.30
2009,08,22,17,22,22.30
2009,08,22,17,23,22.30
2009,08,22,17,24,22.30
2009,08,22,17,25,22.30
2009,08,22,17,26,22.30
2009,08,22,17,27,22.30